Location: Unspecified
(0.0000°N, 0.0000°E)
Time: 15:13:57
(UTC+00:00)

LightSail 2 - Pass Details

Date: 19 August 2019
Orbit: 701 x 732 km, 24.0° (Epoch: 21 August)

Event Time Altitude Azimuth Distance (km) Brightness Sun altitude
Exits shadow 04:19:19 52° 338° (NNW) 885 5.5 -25.4°
Maximum altitude 04:20:17 63° 26° (NNE) 797 5.4 -25.2°
Drops below altitude 10° 04:25:26 10° 106° (ESE) 2,201 8.5 -23.9°
Sets 04:27:55 0° 109° (ESE) 3,128 9.4 -23.3°
